Regional Weather Roundup
Issued by NWS

Home | Current Version | Previous Version | Graphics & Text | Print | Product List | Glossary Off
Versions: 1 2 3 4 5 6 7 8 9 10 11 12 13 14 15 16 17 18 19 20 21 22 23 24 25 26 27 28 29 30 31 32 33 34 35 36 37 38 39 40 41 42 43 44 45 46 47 48 49 50

000
ASUS43 KTOP 300408
RWRKS

WEATHER ROUNDUP FOR KANSAS
NATIONAL WEATHER SERVICE GOODLAND KS
1100 PM CDT FRI JUL 29 2016

NOTE:  "FAIR" INDICATES FEW OR NO CLOUDS BELOW 12,000 FEET WITH NO
SIGNIFICANT WEATHER AND/OR OBSTRUCTIONS TO VISIBILITY.

KSZ001>006-013>018-027>032-041>047-300500-
NORTHWEST KANSAS

CITY           SKY/WX    TMP DP  RH WIND       PRES   REMARKS
GOODLAND       CLOUDY    67  62  84 S6        30.12R
HAYS           PTCLDY    73  61  64 S5        30.04R
HILL CITY      CLOUDY    72  66  81 CALM      30.06R
RUSSELL        CLEAR     72  66  81 E7        30.03R
$$

KSZ061>065-074>080-084>089-300500-
SOUTHWEST KANSAS

CITY           SKY/WX    TMP DP  RH WIND       PRES   REMARKS
DODGE CITY     PTCLDY    72  67  84 E7        30.05F
ELKHART          N/A     72  61  68 E10         N/A
GARDEN CITY    CLOUDY    71  66  84 E8        30.04F
GREAT BEND     CLOUDY    75  63  64 E8        30.03R
LIBERAL        MOCLDY    75  61  60 E13       30.05R
PRATT          MOCLDY    75  65  70 SE6       30.04S
$$

KSZ066>073-081>083-090>101-300500-
SOUTHEAST KANSAS

CITY           SKY/WX    TMP DP  RH WIND       PRES   REMARKS
CHANUTE        CLEAR     76  70  82 CALM      30.01R
COFFEYVILLE    CLEAR     75  71  87 CALM      29.99R
HUTCHINSON     PTCLDY    75  69  81 E5        30.03R
MEDICINE LODGE   N/A     77  68  73 SE6       30.01R
NEWTON         CLOUDY    74  70  87 E5        30.04R
PARSONS        CLEAR     72  70  93 CALM      30.01R
WICHITA INTL   CLEAR     76  69  79 SE3       30.01R
WICHITA JABRA  CLEAR     73  70  90 E3        30.01R
WICHITA MCCONL CLEAR     78  67  70 SE3       30.01R
WINFIELD       CLEAR     76  70  82 SE5       30.02R
$$

KSZ007>012-019>026-033>040-048>060-102>105-300500-
NORTHEAST KANSAS

CITY           SKY/WX    TMP DP  RH WIND       PRES   REMARKS
CONCORDIA      PTCLDY    68  65  90 SE6       30.03R
EMPORIA        CLEAR     71  69  93 SE5       30.02R
LAWRENCE       CLEAR     69  65  86 CALM      30.00R
MANHATTAN      CLEAR     73  66  78 NE3       30.02R
MARYSVILLE     CLEAR     68  63  83 SE3       30.03R
OLATHE IND     CLEAR     71  65  81 N6        30.01R
OLATHE EXE     CLEAR     74  62  66 N3        30.01R
SALINA         CLEAR     79  66  64 E5        30.02R
TOPEKA BILLARD CLEAR     72  64  76 N3        30.01R
TOPEKA FORBES  CLEAR     74  65  73 CALM      30.02R
$$




USA.gov is the U.S. government's official web portal to all federal, state and local government web resources and services.